[[{"header":{"parameterUnit":"m.s-1","parameterCategory":1,"la1":30.2991,"la2":30.254,"lo1":-89.0895,"lo2":-89.0444,"dy":0.0017,"dx":0.0017,"nx":28,"ny":28,"refTime":"2025-08-07T03:00:00:Z","depth":0,"parameterNumber":2,"parameterNumberName":"U-component_of_WINDS"},"data":[0,0,0,0,0,0,0,0,0,0,0,0,0,0,0,0,0,0,0,0,0,0,0,0,0,0,0,0,0,0,0,0,0,0,0,0,0,0,0,0,0,0,0,0,0,0,0,0,0,0,0,0,0,0,0,0,0,0,1.2278,1.2279,0,1.2343,1.2343,1.2344,1.2374,1.2374,1.2374,1.2374,1.2437,1.2439,1.244,0,0,0,0,0,0,0,0,0,0,0,0,0,1.2178,1.218,1.2278,1.2279,1.228,1.2342,1.2343,1.2344,1.2374,1.2374,1.2374,1.2374,1.2436,1.2438,1.2441,0,0,0,0,0,0,0,0,0,0,0,0,0,1.223,1.218,1.2278,1.2302,1.2305,1.2342,1.2343,1.2344,1.2374,1.2374,1.2374,1.2374,1.2436,1.2438,1.2441,1.2457,0,0,1.2449,1.245,0,0,0,0,0,0,0,0,1.2227,1.2233,1.2298,1.2301,1.2304,1.235,1.2331,1.2382,1.2374,1.2348,1.2374,1.2374,1.2408,1.2413,1.2425,1.246,1.2463,1.2449,1.245,1.2451,1.2452,0,0,0,0,0,0,0,1.2223,1.2231,1.2304,1.2299,1.2303,1.2309,1.2316,1.2341,1.2377,1.235,1.2353,1.236,1.241,1.2422,1.2427,1.2464,1.2449,1.2451,1.2453,1.2454,1.2516,1.2516,0,0,0,0,0,0,1.2216,1.2228,1.2302,1.2306,1.2265,1.2311,1.2319,1.2336,1.2377,1.2384,1.236,1.2361,1.2418,1.2424,1.2429,1.2451,1.2451,1.2454,1.2455,1.2515,1.2516,1.2516,0,0,0,0,0,0,1.2214,1.2222,1.2299,1.2267,1.2277,1.2313,1.2331,1.2337,1.235,1.2385,1.2391,1.2367,1.2418,1.2425,1.245,1.2454,1.2455,1.2457,1.2515,1.2515,1.2516,1.2495,0,0,0,0,0,0,1.2211,1.2221,1.2229,1.2267,1.2279,1.232,1.2331,1.2338,1.2354,1.2357,1.2392,1.2398,1.2419,1.2446,1.2453,1.2457,1.2459,1.2515,1.2515,1.2516,1.2496,1.2495,1.2494,0,0,0,0,0,1.2207,1.222,1.2229,1.2238,1.2289,1.232,1.2327,1.2351,1.2355,1.2362,1.2384,1.2397,1.2452,1.2449,1.2456,1.2461,1.2515,1.2515,1.2516,1.2496,1.2495,1.2494,0,0,0,0,0,0,1.218,1.2226,1.2236,1.2262,1.2287,1.2325,1.2335,1.2349,1.2373,1.2374,1.2402,1.241,1.2432,1.2449,1.2444,1.2479,1.2485,1.2486,1.2467,1.2467,1.2466,1.2461,1.2461,0,0,0,0,0,1.2178,1.22,1.2238,1.2257,1.2269,1.23,1.2314,1.2331,1.2357,1.2368,1.2392,1.2417,1.2439,1.2454,1.2477,1.2498,1.2506,1.2506,1.2504,1.2504,1.2505,1.2517,1.2517,1.2517,1.2517,1.2517,0,0,1.2172,1.2199,1.2212,1.2252,1.2274,1.2295,1.2309,1.2331,1.2347,1.2371,1.2396,1.2415,1.2444,1.2467,1.2478,1.2482,1.2507,1.2504,1.2503,1.2505,1.2517,1.2517,1.2517,1.2517,1.2517,1.2517,0,0,1.2173,1.2196,1.2215,1.2236,1.2268,1.2289,1.2293,1.2329,1.2342,1.2368,1.2387,1.2405,1.2444,1.2464,1.2479,1.2487,1.25,1.2493,1.2488,1.25,1.25,1.25,1.2503,1.2503,1.2494,1.2494,1.2494,0,1.2161,1.2196,1.2222,1.2244,1.226,1.2284,1.2302,1.2321,1.2359,1.237,1.2373,1.2422,1.2443,1.2472,1.2473,1.2485,1.249,1.249,1.2498,1.2498,1.2499,1.2502,1.2502,1.2493,1.2494,1.2494,1.2494,0,1.218,1.2203,1.2214,1.2251,1.2269,1.2289,1.2317,1.2332,1.2346,1.2366,1.2391,1.2418,1.2446,1.2454,1.2468,1.2484,1.2485,1.2493,1.2499,1.2498,1.2501,1.2502,1.2492,1.2492,1.2493,1.2493,0,0,1.2166,1.2218,1.2221,1.2238,1.2275,1.2293,1.2313,1.2342,1.2354,1.2379,1.2396,1.2428,1.2436,1.2453,1.2469,1.2479,1.2483,1.2486,1.2487,1.2484,1.2502,1.2496,1.2496,1.2492,1.2492,1.2492,1.2499,0,1.2173,1.2212,1.2235,1.2264,1.2285,1.2307,1.2325,1.2349,1.2367,1.2387,1.2407,1.2429,1.2438,1.2448,1.2459,1.248,1.2487,1.248,1.2507,1.2508,1.2499,1.2498,1.2492,1.2497,1.25,1.2501,1.2501,0,1.2185,1.2211,1.2242,1.2276,1.2286,1.2302,1.233,1.2349,1.2376,1.2388,1.2407,1.2424,1.2445,1.2448,1.2477,1.2472,1.2484,1.2496,1.2497,1.2501,1.2504,1.2502,1.25,1.2501,1.2503,1.2503,1.2503,0,1.2172,1.2214,1.2238,1.2252,1.2293,1.2303,1.232,1.2347,1.2363,1.2387,1.2397,1.2423,1.2437,1.2455,1.2478,1.2479,1.2504,1.251,1.2514,1.2514,1.2519,1.2519,1.2519,1.2527,1.2527,1.2527,1.2526,0,1.2177,1.2195,1.2233,1.2248,1.2268,1.2295,1.2314,1.2333,1.2356,1.2374,1.2394,1.241,1.2439,1.2458,1.2476,1.2496,1.2502,1.2513,1.2517,1.2511,1.251,1.252,1.252,1.2527,1.2527,1.2527,1.2527,0,1.2166,1.2193,1.222,1.2257,1.2266,1.228,1.231,1.2325,1.2344,1.2366,1.2373,1.2403,1.2426,1.2451,1.2482,1.2494,1.2514,1.252,1.2505,1.2508,1.2511,1.2511,1.2519,1.2521,1.2526,1.2526,1.2526,0,1.2168,1.2182,1.2221,1.2235,1.2252,1.2274,1.229,1.2316,1.2332,1.2363,1.2374,1.2399,1.2421,1.2457,1.2481,1.2505,1.2512,1.2513,1.2515,1.2509,1.2512,1.2511,1.2512,1.2512,1.2512,1.2512,1.2511,0,1.2168,1.218,1.2203,1.2231,1.225,1.2272,1.2296,1.2305,1.2336,1.2352,1.2377,1.2394,1.2426,1.2451,1.2478,1.2494,1.2507,1.251,1.2513,1.2507,1.2498,1.2503,1.2503,1.251,1.251,1.251,1.251,1.2511,1.2163,1.2177,1.2206,1.2231,1.2252,1.2273,1.2288,1.231,1.2331,1.236,1.2374,1.2399,1.2424,1.2462,1.2478,1.2497,1.2501,1.2504,1.2505,1.2505,1.2504,1.2494,1.2502,1.2502,1.2502,1.2502,1.2502,0,1.2164,1.2184,1.2207,1.2239,1.2258,1.227,1.2296,1.2311,1.2333,1.2357,1.2378,1.2406,1.2429,1.2455,1.248,1.249,1.2497,1.2496,1.2495,1.2499,1.2499,1.2495,1.249,1.249,1.249,1.249,1.249,1.249,1.2167,1.2191,1.2207,1.224,1.226,1.2285,1.2299,1.2318,1.2337,1.2368,1.2388,1.2405,1.2429,1.2455,1.2477,1.2484,1.2492,1.2489,1.2498,1.2498,1.2499,1.25,1.2496,1.2491,1.2491,1.2496,1.2496,1.2496]},{"header":{"parameterUnit":"m.s-1","parameterCategory":1,"la1":30.2991,"la2":30.254,"lo1":-89.0895,"lo2":-89.0444,"dy":0.0017,"dx":0.0017,"nx":28,"ny":28,"refTime":"2025-08-07T03:00:00:Z","depth":0,"parameterNumber":3,"parameterNumberName":"V-component_of_WINDS"},"data":[0,0,0,0,0,0,0,0,0,0,0,0,0,0,0,0,0,0,0,0,0,0,0,0,0,0,0,0,0,0,0,0,0,0,0,0,0,0,0,0,0,0,0,0,0,0,0,0,0,0,0,0,0,0,0,0,0,0,1.5368,1.5369,0,1.5463,1.5465,1.5466,1.5498,1.5498,1.5498,1.5497,1.5595,1.5597,1.56,0,0,0,0,0,0,0,0,0,0,0,0,0,1.5211,1.5213,1.5368,1.5369,1.537,1.5463,1.5465,1.5466,1.5498,1.5498,1.5498,1.5497,1.5594,1.5597,1.5601,0,0,0,0,0,0,0,0,0,0,0,0,0,1.529,1.5214,1.5367,1.5398,1.5401,1.5463,1.5465,1.5466,1.5499,1.5498,1.5497,1.5497,1.5592,1.5597,1.5601,1.564,0,0,1.5615,1.5616,0,0,0,0,0,0,0,0,1.5285,1.5295,1.5392,1.5396,1.54,1.5468,1.5445,1.5524,1.5499,1.5462,1.5497,1.5497,1.5553,1.5561,1.558,1.5644,1.5648,1.5615,1.5618,1.562,1.5621,0,0,0,0,0,0,0,1.528,1.5291,1.5406,1.5393,1.5398,1.5405,1.5416,1.546,1.5509,1.5465,1.5467,1.5478,1.5555,1.5575,1.5582,1.565,1.5615,1.5619,1.5621,1.5623,1.5748,1.5749,0,0,0,0,0,0,1.5269,1.5287,1.5403,1.5408,1.534,1.5409,1.5421,1.5447,1.5509,1.5518,1.5479,1.5479,1.5568,1.5577,1.5586,1.5634,1.5619,1.5624,1.5626,1.5747,1.5748,1.5749,0,0,0,0,0,0,1.5266,1.5279,1.5399,1.5348,1.5364,1.5412,1.5441,1.5449,1.547,1.5519,1.5528,1.5491,1.5568,1.558,1.5626,1.5638,1.5626,1.563,1.5747,1.5748,1.5748,1.573,0,0,0,0,0,0,1.5261,1.5278,1.5294,1.5348,1.5367,1.5438,1.5442,1.5451,1.5477,1.5479,1.5533,1.5541,1.5569,1.5619,1.563,1.5643,1.5633,1.5746,1.5747,1.5748,1.573,1.5731,1.5731,0,0,0,0,0,1.5255,1.5285,1.5295,1.5308,1.5388,1.5438,1.5449,1.5479,1.5478,1.5494,1.5525,1.554,1.5634,1.5623,1.5636,1.5651,1.5745,1.5747,1.5748,1.573,1.5731,1.5731,0,0,0,0,0,0,1.5232,1.5293,1.5304,1.5353,1.539,1.5444,1.5465,1.5479,1.5518,1.5518,1.5554,1.5566,1.5609,1.5635,1.5621,1.569,1.569,1.5694,1.5672,1.5673,1.5674,1.5667,1.5637,0,0,0,0,0,1.5232,1.5268,1.532,1.5358,1.5376,1.5417,1.544,1.546,1.55,1.5516,1.5551,1.5589,1.5627,1.5652,1.5689,1.5734,1.5745,1.575,1.575,1.5751,1.5754,1.5777,1.578,1.5754,1.5754,1.5754,0,0,1.5233,1.5271,1.5292,1.5354,1.5385,1.5421,1.543,1.5468,1.5495,1.5522,1.5567,1.5594,1.5638,1.5683,1.5704,1.5706,1.5763,1.5753,1.5752,1.5756,1.5779,1.5781,1.5783,1.5755,1.5755,1.5754,0,0,1.5254,1.5287,1.5321,1.5352,1.5398,1.5425,1.5433,1.5484,1.5503,1.5549,1.5569,1.56,1.5666,1.5696,1.572,1.5748,1.5762,1.576,1.5762,1.5784,1.5786,1.5788,1.5797,1.58,1.5763,1.5762,1.5762,0,1.525,1.5305,1.5337,1.5373,1.5399,1.5424,1.5458,1.5486,1.5543,1.556,1.556,1.5641,1.5673,1.5724,1.573,1.5749,1.5759,1.5754,1.5784,1.5786,1.5788,1.5797,1.5801,1.5762,1.5762,1.5762,1.5762,0,1.5297,1.5334,1.5356,1.541,1.5438,1.5473,1.5509,1.5533,1.555,1.5576,1.5621,1.566,1.5705,1.5718,1.5736,1.5771,1.577,1.5777,1.5778,1.5789,1.5798,1.5802,1.5761,1.5761,1.5761,1.5761,0,0,1.5307,1.5375,1.5383,1.5406,1.5458,1.5488,1.5523,1.5567,1.5586,1.5624,1.5653,1.5707,1.5712,1.5739,1.576,1.5779,1.5797,1.5783,1.5785,1.5784,1.5837,1.5831,1.5835,1.5806,1.5807,1.5808,1.5833,0,1.5333,1.5398,1.5426,1.5477,1.5511,1.5535,1.5565,1.5599,1.5624,1.5656,1.5683,1.572,1.5725,1.5741,1.5761,1.5791,1.5808,1.5789,1.5833,1.5835,1.5822,1.584,1.5835,1.5857,1.5837,1.5837,1.5838,0,1.5374,1.541,1.5465,1.5511,1.5526,1.5553,1.5594,1.5625,1.5663,1.568,1.5708,1.5728,1.5764,1.5761,1.5811,1.5797,1.5817,1.5833,1.5835,1.584,1.5837,1.5845,1.5865,1.5868,1.5844,1.5843,1.5843,0,1.5374,1.5437,1.5477,1.5497,1.5552,1.557,1.5593,1.5631,1.5655,1.5691,1.5706,1.5746,1.5767,1.5796,1.5825,1.5821,1.5871,1.5872,1.5885,1.5884,1.5895,1.5894,1.5917,1.5908,1.5908,1.5907,1.5907,0,1.5401,1.5433,1.5478,1.5503,1.5538,1.557,1.5604,1.5629,1.5663,1.5692,1.5714,1.5741,1.5777,1.5808,1.583,1.5867,1.5876,1.589,1.5895,1.5888,1.5886,1.5901,1.59,1.5908,1.5908,1.5908,1.5908,0,1.5408,1.5439,1.5484,1.5532,1.5544,1.5569,1.5609,1.5633,1.5658,1.5694,1.5704,1.5743,1.578,1.5811,1.586,1.5875,1.5913,1.592,1.59,1.5903,1.5914,1.5912,1.5948,1.5954,1.594,1.594,1.594,0,1.5422,1.5448,1.5497,1.5518,1.5541,1.5575,1.5599,1.563,1.5654,1.5698,1.5716,1.5755,1.5788,1.5846,1.5878,1.5915,1.5922,1.5932,1.5928,1.5919,1.5921,1.5919,1.5922,1.5932,1.5932,1.5932,1.5932,0,1.5445,1.5459,1.5493,1.5531,1.5559,1.5591,1.5624,1.5639,1.5676,1.5701,1.5739,1.5765,1.5814,1.5851,1.5891,1.5915,1.5929,1.5933,1.5938,1.5931,1.5918,1.5924,1.59,1.5932,1.5932,1.5932,1.5932,1.5932,1.5456,1.5479,1.5516,1.5553,1.558,1.5609,1.5634,1.5661,1.5693,1.5736,1.5752,1.579,1.5826,1.5881,1.5904,1.5934,1.5936,1.5944,1.5945,1.5947,1.5945,1.5913,1.5942,1.5942,1.5942,1.5942,1.5942,0,1.5479,1.5504,1.5537,1.5581,1.5609,1.562,1.5656,1.5679,1.5712,1.5745,1.5776,1.5818,1.5854,1.5888,1.5925,1.5943,1.595,1.5951,1.595,1.5955,1.5942,1.5933,1.5944,1.5944,1.5944,1.5944,1.5944,1.5944,1.5494,1.5533,1.555,1.5602,1.5626,1.5664,1.5684,1.571,1.5736,1.5782,1.5812,1.5834,1.5867,1.5906,1.5939,1.5948,1.596,1.5959,1.597,1.5957,1.5956,1.5956,1.5948,1.5962,1.5962,1.5981,1.5981,1.5981]}]]